EW3230 Weather Reports


Display with metric or nautical units.
time (UTC)temp
F
wind
direction
speed
MPH
gust
MPH
rain 1hr
in
rain 24hr
in
rain mn
in
humidity
%
barometer
mb
20260506204838 60 229 2.0 9.0 0.00 0.00 0.00 81 1009.2
20260506203336 60 212 3.0 11.0 0.00 0.00 0.00 81 1009.3
20260506202838 60 217 3.0 9.0 0.00 0.00 0.00 81 1009.5
20260506201335 60 225 2.0 6.0 0.00 0.00 0.00 81 1009.5
20260506200335 60 186 3.0 11.0 0.00 0.00 0.00 81 1009.7
20260506195336 61 242 3.0 9.0 0.00 0.00 0.00 80 1009.8
20260506194336 61 155 3.0 11.0 0.00 0.00 0.00 80 1009.8
20260506193335 61 191 3.0 8.0 0.00 0.00 0.00 80 1010.0
20260506192334 62 242 3.0 8.0 0.00 0.00 0.00 80 1010.0
20260506191333 62 198 2.0 6.0 0.00 0.00 0.00 79 1010.1
20260506190345 62 206 3.0 12.0 0.00 0.00 0.00 79 1010.0
20260506185333 63 210 2.0 9.0 0.00 0.00 0.00 78 1010.2
20260506184333 63 205 3.0 9.0 0.00 0.00 0.00 79 1010.3
20260506183333 62 221 4.0 10.0 0.00 0.00 0.00 79 1010.5
20260506182333 63 192 4.0 8.0 0.00 0.00 0.00 78 1010.7
20260506181835 63 198 3.0 8.0 0.00 0.00 0.00 77 1010.9
20260506180334 64 174 4.0 11.0 0.00 0.00 0.00 77 1011.0
20260506175333 65 207 4.0 9.0 0.00 0.00 0.00 76 1011.1
20260506174333 65 203 4.0 12.0 0.00 0.00 0.00 76 1011.4
20260506173332 65 221 5.0 12.0 0.00 0.00 0.00 76 1011.3
20260506172330 65 110 6.0 11.0 0.00 0.00 0.00 76 1011.2
20260506171332 64 218 5.0 11.0 0.00 0.00 0.00 77 1011.5
20260506170333 63 228 4.0 9.0 0.00 0.00 0.00 78 1011.5
20260506165332 63 239 5.0 14.0 0.00 0.00 0.00 78 1011.7
20260506164332 64 215 4.0 9.0 0.00 0.00 0.00 77 1011.8
20260506163330 64 221 3.0 7.0 0.00 0.00 0.00 76 1011.9
20260506162328 65 136 3.0 8.0 0.00 0.00 0.00 75 1012.1
20260506161328 65 236 4.0 9.0 0.00 0.00 0.00 75 1012.2
20260506160327 65 198 4.0 9.0 0.00 0.00 0.00 75 1012.2
20260506155828 65 312 5.0 14.0 0.00 0.00 0.00 75 1012.3
20260506154828 65 214 5.0 12.0 0.00 0.00 0.00 75 1012.3
20260506153327 65 209 5.0 13.0 0.00 0.00 0.00 76 1012.4
20260506152326 65 194 5.0 12.0 0.00 0.00 0.00 76 1012.7
20260506151324 64 152 4.0 15.0 0.00 0.00 0.00 76 1012.7
20260506144842 64 296 4.0 9.0 0.00 0.00 0.00 76 1012.7
20260506143325 64 194 4.0 9.0 0.00 0.00 0.00 76 1012.6
20260506142326 65 211 3.0 11.0 0.00 0.00 0.00 75 1012.3
20260506141824 66 228 3.0 9.0 0.00 0.00 0.00 74 1012.3
20260506140322 65 184 4.0 9.0 0.00 0.00 0.00 75 1012.4
20260506135321 65 207 4.0 7.0 0.00 0.00 0.00 76 1012.6
20260506134822 65 200 3.0 8.0 0.00 0.00 0.00 77 1012.8
20260506133321 64 191 4.0 13.0 0.00 0.00 0.00 78 1012.8
20260506132325 63 245 5.0 11.0 0.00 0.00 0.00 78 1012.6
20260506131322 63 152 4.0 8.0 0.00 0.00 0.00 78 1012.5
20260506130320 63 180 3.0 8.0 0.00 0.00 0.00 79 1012.3
20260506125320 63 215 4.0 9.0 0.00 0.00 0.00 79 1012.4
20260506124320 63 203 4.0 9.0 0.00 0.00 0.00 79 1012.7
20260506123318 63 191 3.0 8.0 0.00 0.00 0.00 80 1012.8
20260506122314 62 198 3.0 8.0 0.00 0.00 0.00 80 1012.8
20260506121315 62 210 3.0 7.0 0.00 0.00 0.00 80 1012.8
20260506120314 61 277 3.0 9.0 0.00 0.00 0.00 81 1012.8
20260506115313 60 148 2.0 8.0 0.00 0.00 0.00 81 1013.0
20260506113311 58 197 3.0 7.0 0.00 0.00 0.00 80 1013.2
20260506112310 58 239 2.0 7.0 0.00 0.00 0.00 80 1013.1
20260506111317 58 225 2.0 7.0 0.00 0.00 0.00 79 1012.9
20260506110259 58 236 2.0 5.0 0.00 0.00 0.00 78 1013.1
20260506105259 57 222 2.0 6.0 0.00 0.00 0.00 78 1013.1
20260506104259 57 187 2.0 7.0 0.00 0.00 0.00 77 1013.3
20260506102757 57 187 2.0 8.0 0.00 0.00 0.00 77 1013.1
20260506101256 57 187 2.0 6.0 0.00 0.00 0.00 77 1013.0
20260506100252 56 167 1.0 6.0 0.00 0.00 0.00 76 1012.9
20260506095253 56 210 1.0 5.0 0.00 0.00 0.00 77 1012.9
20260506094747 57 221 2.0 8.0 0.00 0.00 0.00 77 1013.0
20260506093246 57 214 2.0 5.0 0.00 0.00 0.00 77 1013.0
20260506092244 57 241 2.0 7.0 0.00 0.00 0.00 77 1013.1
20260506091249 57 214 1.0 5.0 0.00 0.00 0.00 76 1013.2
20260506091243 57 250 2.0 5.0 0.00 0.00 0.00 76 1013.2
20260506085745 58 245 1.0 7.0 0.00 0.00 0.00 77 1013.1
20260506084241 58 183 2.0 8.0 0.00 0.00 0.00 76 1013.3
20260506083240 58 203 2.0 7.0 0.00 0.00 0.00 75 1013.3
20260506082242 57 205 2.0 9.0 0.00 0.00 0.00 75 1013.2
20260506081242 57 123 1.0 5.0 0.00 0.00 0.00 76 1013.3
20260506080238 57 224 2.0 6.0 0.00 0.00 0.00 76 1013.3
20260506073236 56 169 2.0 7.0 0.00 0.00 0.00 76 1013.1
20260506072234 56 212 2.0 6.0 0.00 0.00 0.00 77 1013.2
20260506071236 56 250 2.0 8.0 0.00 0.00 0.00 78 1013.1
20260506070235 57 181 2.0 6.0 0.00 0.00 0.00 79 1013.1
20260506062230 57 193 1.0 5.0 0.00 0.00 0.00 79 1013.0
20260506061729 57 134 1.0 4.0 0.00 0.00 0.00 80 1013.1
20260506060228 57 153 2.0 5.0 0.00 0.00 0.00 80 1013.2
20260506051219 58 221 1.0 5.0 0.00 0.00 0.00 80 1013.6
20260506050722 57 155 2.0 5.0 0.00 0.00 0.00 80 1013.7
20260506044221 57 260 2.0 6.0 0.00 0.00 0.00 80 1013.6
20260506043219 57 221 2.0 5.0 0.00 0.00 0.00 80 1013.7
20260506042220 57 235 1.0 4.0 0.00 0.00 0.00 80 1013.6
20260506041218 57 212 2.0 6.0 0.00 0.00 0.00 80 1013.6
20260506040219 57 158 2.0 6.0 0.00 0.00 0.00 80 1013.6
20260506035218 57 141 1.0 5.0 0.00 0.00 0.00 81 1013.5
20260506034221 57 241 2.0 8.0 0.00 0.00 0.00 81 1013.6
20260506033719 57 215 1.0 6.0 0.00 0.00 0.00 81 1013.6
20260506032212 57 191 2.0 6.0 0.00 0.00 0.00 81 1013.4
20260506031214 57 235 2.0 8.0 0.00 0.00 0.00 81 1013.3
20260506030214 56 215 1.0 4.0 0.00 0.00 0.00 81 1013.3
20260506025214 56 250 2.0 5.0 0.00 0.00 0.00 81 1013.3
20260506024212 56 176 2.0 9.0 0.00 0.00 0.00 81 1013.3
20260506023209 56 163 1.0 8.0 0.00 0.00 0.00 81 1013.3
20260506022206 56 191 1.0 4.0 0.00 0.00 0.00 81 1013.4
20260506021206 57 203 1.0 5.0 0.00 0.00 0.00 80 1013.4
20260506020706 57 210 1.0 5.0 0.00 0.00 0.00 80 1013.5
20260506015202 57 208 1.0 4.0 0.00 0.00 0.00 79 1013.5
20260506014703 57 203 2.0 7.0 0.00 0.00 0.00 78 1013.4
20260506013203 57 203 2.0 7.0 0.00 0.00 0.00 78 1013.2
20260506012203 57 191 2.0 7.0 0.00 0.00 0.00 78 1013.2
20260506011202 57 229 2.0 6.0 0.00 0.00 0.00 78 1013.3
20260506010159 57 197 2.0 5.0 0.00 0.00 0.00 78 1013.2
20260506005158 57 197 2.0 5.0 0.00 0.00 0.00 78 1013.2
20260506004701 57 218 1.0 5.0 0.00 0.00 0.00 78 1013.0
20260506004316 57 155 2.0 5.0 0.00 0.00 0.00 78 1012.8
20260506002158 58 198 2.0 7.0 0.00 0.00 0.00 78 1012.2
20260506001200 58 197 2.0 8.0 0.00 0.00 0.00 78 1011.8
20260506000159 58 206 3.0 6.0 0.00 0.00 0.00 78 1011.7
20260505235200 58 194 3.0 8.0 0.00 0.00 0.00 78 1011.6
20260505234159 58 240 3.0 7.0 0.00 0.00 0.00 79 1011.5
20260505233158 58 257 2.0 8.0 0.00 0.00 0.00 79 1011.5
20260505232159 58 217 2.0 8.0 0.00 0.00 0.00 79 1011.4
20260505231159 58 229 2.0 7.0 0.00 0.00 0.00 78 1011.6
20260505230201 59 219 2.0 7.0 0.00 0.00 0.00 78 1011.4
20260505225159 59 181 2.0 7.0 0.00 0.00 0.00 77 1011.2
20260505224201 60 204 2.0 7.0 0.00 0.00 0.00 76 1011.2
20260505223159 60 197 3.0 9.0 0.00 0.00 0.00 75 1011.1
20260505222159 61 181 2.0 7.0 0.00 0.00 0.00 73 1011.0
20260505221702 62 203 3.0 7.0 0.00 0.00 0.00 72 1010.8
20260505220158 62 277 3.0 7.0 0.00 0.00 0.00 72 1011.0
20260505215201 62 187 3.0 7.0 0.00 0.00 0.00 72 1010.9
20260505214159 62 225 3.0 8.0 0.00 0.00 0.00 73 1010.8
20260505213158 62 208 3.0 10.0 0.00 0.00 0.00 72 1010.8
20260505212159 63 215 2.0 5.0 0.00 0.00 0.00 73 1010.6
20260505211158 62 200 4.0 8.0 0.00 0.00 0.00 72 1010.5
20260505205159 64 264 3.0 11.0 0.00 0.00 0.00 70 1010.5